Regional Weather Roundup
Issued by NWS Wakefield, VA

Home | Current Version | Previous Version | Graphics & Text | Print | Product List | Glossary On
Versions: 1 2 3 4 5 6 7 8 9 10 11 12 13 14 15 16 17 18 19 20 21 22 23 24 25 26 27 28 29 30 31 32 33 34 35 36 37 38 39 40 41 42 43 44 45 46 47 48 49 50
000
ASUS41 KAKQ 262115
RWRAKQ

REGIONAL WEATHER ROUNDUP
NATIONAL WEATHER SERVICE WAKEFIELD VA
500 PM EDT FRI AUG 26 2016

Note: "fair" indicates few or no clouds below 12,000 feet with no
significant weather and/or obstructions to visibility. * = Denotes
station may not report precipitation (e.g., rain,snow,etc.),
thunder or fog.

VAZ042-051-052>054-056-262200-
NORTHERN VIRGINIA

CITY           SKY/WX    TMP DP  RH WIND       PRES   REMARKS
WASH NATIONAL  PTSUNNY   94  69  44 N13       30.03F HX  99
DULLES         PTSUNNY   94  69  44 NE8       30.04F HX  99
FORT BELVOIR   SUNNY     93  70  47 NW7       30.02F HX  99
QUANTICO       NOT AVBL
FREDERICKSBRG*   N/A     93  73  52 NE7       30.02S HX 101
STAFFORD*      SUNNY     93  69  44 CALM      30.07S HX  98
WARRENTON      SUNNY     94  68  42 CALM      30.04S HX  98
CULPEPER*      SUNNY     93  74  53 N3        30.04S HX 104
MANASSAS*      PTSUNNY   95  70  43 NE7       30.03F HX 101
LEESBURG*      SUNNY     93  72  49 N7        30.05F HX 100
WINCHESTER     MOSUNNY   90  68  48 CALM      30.06S
FRONT ROYAL*   CLOUDY    86  77  74 CALM      30.05S HX  97
LURAY*         FAIR      93  66  40 NW6       30.06S HX  96
$$

VAZ048-049-060>072-079>083-262200-
CENTRAL AND SOUTH CENTRAL VIRGINIA

CITY           SKY/WX    TMP DP  RH WIND       PRES   REMARKS
RICHMOND       MOSUNNY   98  70  40 N9        30.03S HX 105
CHESTERFIELD*  FAIR      97  64  34 N6        30.04F HX  99
PETERSBURG*    SUNNY     96  67  38 CALM      30.04S HX 100
HANOVER        SUNNY     95  71  45 NE3       30.05F HX 102
TAPPAHANNOCK*  SUNNY     95  68  42 CALM      30.04F HX  99
QUINTON*       FAIR      95  74  50 CALM      30.03S HX 104
CHARLOTTSVILLE SUNNY     94  70  45 CALM      30.05F HX 100
GORDONSVILLE*  MOCLDY    93  73  52 CALM      30.04F HX 102
ORANGE*          N/A     95  70  43 CALM      30.06S HX 101
LOUISA*        MOSUNNY   91  82  75 CALM      30.04F HX 114
BUMPASS*       FAIR      92  74  54 CALM      30.04F HX 102
FARMVILLE*     NOT AVBL
CREWE*         FAIR      93  73  52 CALM      30.04F HX 102
FORT PICKETT*  NOT AVBL
CHASE CITY*    FAIR      92  69  46 CALM      30.05F HX  97
CLARKSVILLE*   MOCLDY    95  70  43 SE5       30.04S HX 101
SOUTH HILL*    MOSUNNY   94  74  52 SE3       30.10S HX 104
LAWRENCEVILLE* MOCLDY    93  73  50 NE3       30.05S HX 102
EMPORIA*       MOSUNNY   91  73  55 E3        30.05S HX 100
$$

VAZ088>098-262200-
SOUTHEAST VIRGINIA

CITY           SKY/WX    TMP DP  RH WIND       PRES   REMARKS
NORFOLK        SUNNY     91  73  55 NE5       30.03S HX  99
VIRGINIA BEACH MOSUNNY   97  73  45 E5        30.02F HX 107
NORFOLK NAVAL  MOSUNNY   94  70  45 NE5       30.04S HX 100
WEST POINT*    MOSUNNY   96  68  40 NW6       30.04S HX 100
SALUDA*        FAIR      93  75  55 W6        30.02F HX 104
NEWPORT NEWS   MOSUNNY   94  74  52 VRB6      30.03S HX 104
LANGLEY AFB    SUNNY     92  71  49 NE6       30.02F HX  99
FORT EUSTIS    SUNNY     96  77  53 S6        30.01S HX 110
WILLIAMSBURG*  SUNNY     95  73  49 S5        30.03S HX 105
HR EXEC AP*    FAIR      95  73  49 N7        30.04S HX 105
FRANKLIN*      SUNNY     92  73  52 CALM      30.03S HX 100
US460-WAKEFLD  PTSUNNY   95  70  44 SW3       30.03S HX 101
$$

VAZ020-022-025-037-045-262200-
WEST CENTRAL AND SOUTHWEST VIRGINIA

CITY           SKY/WX    TMP DP  RH WIND       PRES   REMARKS
STAUNTON*      SUNNY     91  70  50 S6        30.11S HX  96
WAYNESBORO*    FAIR      87  72  60 SE6       30.11S
HOT SPRINGS VA SUNNY     81  64  57 N5        30.27S
LYNCHBURG      MOSUNNY   90  70  51 E5        30.10S HX  95
DANVILLE       SUNNY     93  71  48 VRB3      30.06F HX 100
SOUTH BOSTON*  FAIR      94  69  44 CALM      30.04F HX  98
MARTINSVILLE   SUNNY     92  68  45 CALM      30.11F HX  96
ROANOKE        MOSUNNY   91  67  44 VRB5      30.12S
BLACKSBURG     MOSUNNY   89  67  49 CALM      30.20F
DUBLIN*        SUNNY     89  67  49 W3        30.19S
MARION*        SUNNY     87  64  45 CALM      30.23S
HILLSVILLE*    SUNNY     84  67  55 NE3       30.21S
RICHLANDS*     FAIR      85  68  58 NE3       30.21F
WISE*          MOSUNNY   86  55  35 N6        30.22F
ABINGDON*      MOSUNNY   88  67  48 S6        30.16F
$$

MDZ021>025-VAZ099-100-262200-
SOUTHERN MARYLAND AND THE DELMARVA PENINSULA

CITY           SKY/WX    TMP DP  RH WIND       PRES   REMARKS
PATUXENT RIVER MOSUNNY   90  72  55 S6        30.02F HX  97
BAY BRIDGE APT MOSUNNY   90  73  58 N6        30.02F HX  98
LEONARDTOWN    SUNNY     91  70  49 CALM      30.04F HX  97
DOVER          SUNNY     91  74  56 W12       30.00S HX 100
GEORGETOWN     SUNNY     91  71  51 NW8       30.02S HX  97
EASTON         SUNNY     91  77  62 N6        30.06F HX 105
CAMBRIDGE      SUNNY     90  70  51 N7        30.02S HX  95
SALISBURY      SUNNY     91  71  51 NW7       30.01F HX  97
OCEAN CITY     SUNNY     88  74  63 E7        30.02S HX  96
WALLOPS ISLAND SUNNY     93  67  42 NW9       30.02S HX  96
ACCOMACK*      SUNNY     91  71  51 CALM      30.03S HX  97
$$

NCZ012>017-030>032-262200-
NORTH CENTRAL AND EASTERN NORTH CAROLINA

CITY           SKY/WX    TMP DP  RH WIND       PRES   REMARKS
ROANOKE RAPIDS FAIR      91  73  55 CALM      30.03S HX 100
RALEIGH        MOSUNNY   95  67  39 CALM      30.04F HX  99
ELIZABETH CITY SUNNY     91  71  51 S7        30.04S HX  97
AHOSKIE*       SUNNY     92  74  55 SE5       30.03S HX 101
EDENTON*       SUNNY     93  71  49 S6        30.04S HX 100
CURRITUCK*       N/A     92  72  52 S3        30.04S HX  99
KILL DEVIL HLS SUNNY     92  78  63 S6        30.04S HX 107
MANTEO         SUNNY     85  75  71 S12       30.05S
CAPE HATTERAS  SUNNY     86  69  56 VRB3      30.06F
TARBORO*       FAIR      95  75  51 CALM      30.04S HX 107
GOLDSBORO      MOSUNNY   94  71  47 CALM      30.02S HX 101
WASHINGTON     SUNNY     91  73  56 SE5       30.04S HX  99
GREENVILLE     PTSUNNY   95  73  49 SE3       30.05S HX 105
NEW BERN       SUNNY     90  71  53 E5        30.06S HX  96
WILMINGTON     SUNNY     87  71  58 SE8       30.05F
$$

VAZ048-262200-
ELSEWHERE

CITY           SKY/WX    TMP DP  RH WIND       PRES   REMARKS
HARRISBURG PA  MOSUNNY   91  65  41 NW8       30.03S
BALTIMORE      MOSUNNY   92  69  47 NW6       30.02F HX  97
ANNAPOLIS      PTSUNNY   90  73  57 E3        30.02S HX  98
ANDREWS AFB    MOSUNNY   92  69  47 VRB5      30.03S HX  96
PHILADELPHIA   MOSUNNY   92  63  38 W13       30.01R
HENDERSON NC   SUNNY     91  69  47 CALM      30.05F HX  96
GREENSBORO     PTSUNNY   92  70  48 E9        30.08F HX  97
ROCKY MOUNT    SUNNY     95  73  48 CALM      30.03F HX 104
$$

VAZ100-262200-
MARINE

STATION/POSITION TIME  TEMP    WIND        PRES    WAVE   SWELL
                       AIR SEA DIR/SP/G            HT/PER HT/PER
                 (UTC) (F)     (DEG/KT/KT) (MB)    (FT/S) (FT/S)
BRANDYWINE LGT   2000   85     330/  6/  7   N/A
CAPE MAY NJ      2000   85 77  310/  7/  9 1016.0F
LEWES DE         2000   83 75   10/  4/  8 1016.3F
OCEAN-CITY-INLET 2000   85 73  110/  5/  8 1016.8R
WACHAPREAGUE VA  2000   88 84  180/  7/ 10 1016.7F
THOMAS POINT MD  2100   88 84   60/  6/  7 1018.0S
GOOSES REEF MD   2000   89 88   60/  2/  2 1017.4F   0
COVE POINT MD    2000   87      30/  3/  4 1017.4F
SOLOMONS ISLAND  2000   90 83  360/  7/ 14   N/A
PINEY POINT MD   2000          320/  9/ 10   N/A
POTOMAC MD       2000   89 87  320/  8/ 10 1015.9F   0
CAMBRIDGE MD     2000   89 83  320/  7/  9 1016.0F
LEWISETTA VA     2000   92 84  340/  8/ 12 1016.5F
RAPPAHANNOCK LGT 2000          250/  5/  5 1017.6F
STINGRAY PT      2000   87 85   90/  6/  6 1017.3F   0
YORK RVR RNG VA  2000   85     150/  7/  8 1016.5F
YORKTOWN VA      2000   87 83   90/  9/ 10 1016.4F
JAMESTOWN VA     2000   91 87  190/  4/  4   N/A     0
DOMINION TERM VA 2000   89     120/  4/  5 1017.1F
KIPTOPEKE VA     2000      83  200/  5/  6   N/A
CHES BAY BRIDGE  2000   84 79   70/  3/  4 1017.0F
CAPE HENRY VA    2000   84     110/  6/  7   N/A
WILLOUBY STN VA  2000   86      70/  4/  6   N/A
CAPE HENRY BUOY  2012      80                N/A     2/ 8
1ST LANDING BUOY 2000   83 81  150/  4/  6 1016.6F   1/ 4
CAPE CHARLES BUO 2026      80                N/A     2/ 8
OFFSHORE WE BUOY 2021      80                N/A     2/ 8
64NM E OF VA BCH 2050   81 81  210/ 10/ 12 1017.3S   2/ 8   2/ 8
DUCK PIER NC     2000   84 78  140/  9/  9 1017.0F
44100 DUCK FRF   2005      80                N/A     2/ 8
44056 DUCK FRF   2011      81                N/A     2/ 8
OREGON INLET NC  2000   83 81  180/  9/ 12 1017.9F
HATTERAS NC      2000   85 82  170/  4/  7 1017.9F
DIAMOND SHLS NC  2050   83 87   CALM  /  2 1018.1F   2/ 8   2/ 8
CAPE LOOKOUT NC  2100   83     140/  3/  4 1017.6F
$$



USA.gov is the U.S. government's official web portal to all federal, state and local government web resources and services.